AFL1006 UUEE-ULLI

Flight info

Callsign AFL1006
Flight time 0h 59m
Altitude 40000
Route TOKNU3J TOKNU L4 NUDKO T561 ODATI T875 GENPA GENPA1V
Aircraft A359/H-SDE2E3GHIJ3J4J5LM1ORWXY/LB1D1

Departure

Time 2026-05-05 07:37
Airport Sheremetyevo International Airport (UUEE)

Arrival

Time 2026-05-05 08:36
Airport Pulkovo Airport (ULLI)
Time Latitude Longitude Altitude Speed Heading
2026-05-05 07:16 55.97929 37.41873 636 ft 0 kts 259°
2026-05-05 07:26 55.97932 37.41891 643 ft 2 kts 252°
2026-05-05 07:26 55.97938 37.41919 644 ft 2 kts 250°
2026-05-05 07:26 55.97942 37.41947 639 ft 2 kts 254°
2026-05-05 07:26 55.97945 37.41965 643 ft 0 kts 254°
2026-05-05 07:28 55.97949 37.41983 639 ft 2 kts 231°
2026-05-05 07:29 55.97963 37.41996 639 ft 2 kts 190°
2026-05-05 07:29 55.97979 37.41999 645 ft 2 kts 166°
2026-05-05 07:29 55.97993 37.41992 643 ft 1 kts 164°
2026-05-05 07:29 55.97995 37.41990 641 ft 0 kts 164°
2026-05-05 07:31 55.97987 37.41995 643 ft 5 kts 164°
2026-05-05 07:31 55.97924 37.42029 638 ft 14 kts 162°
2026-05-05 07:31 55.97832 37.42070 646 ft 10 kts 166°
2026-05-05 07:31 55.97802 37.42147 642 ft 7 kts 83°
2026-05-05 07:32 55.97820 37.42271 644 ft 14 kts 75°
2026-05-05 07:32 55.97853 37.42490 641 ft 22 kts 75°
2026-05-05 07:32 55.97898 37.42793 639 ft 28 kts 76°
2026-05-05 07:32 55.97953 37.43165 638 ft 34 kts 75°
2026-05-05 07:33 55.98015 37.43581 641 ft 26 kts 75°
2026-05-05 07:33 55.98051 37.43816 644 ft 19 kts 74°
2026-05-05 07:33 55.98060 37.43929 643 ft 9 kts 107°
2026-05-05 07:33 55.98011 37.43984 640 ft 3 kts 162°
2026-05-05 07:34 55.97960 37.44016 639 ft 12 kts 160°
2026-05-05 07:34 55.97908 37.44044 637 ft 2 kts 167°
2026-05-05 07:34 55.97862 37.44064 642 ft 11 kts 166°
2026-05-05 07:34 55.97760 37.44107 646 ft 19 kts 166°
2026-05-05 07:35 55.97621 37.44176 639 ft 18 kts 158°
2026-05-05 07:35 55.97545 37.44205 644 ft 4 kts 217°
2026-05-05 07:35 55.97542 37.44181 645 ft 0 kts 255°
2026-05-05 07:36 55.97495 37.43857 640 ft 66 kts 255°
2026-05-05 07:36 55.97308 37.42615 639 ft 139 kts 255°
2026-05-05 07:36 55.97017 37.40691 1057 ft 165 kts 255°
2026-05-05 07:37 55.96776 37.38733 1987 ft 162 kts 258°
2026-05-05 07:37 55.96571 37.36877 2403 ft 159 kts 250°
2026-05-05 07:37 55.95921 37.35120 2728 ft 182 kts 230°
2026-05-05 07:37 55.95069 37.33263 3054 ft 204 kts 231°
2026-05-05 07:38 55.94189 37.31215 3517 ft 216 kts 234°
2026-05-05 07:38 55.93293 37.28962 4056 ft 228 kts 234°
2026-05-05 07:38 55.92376 37.26620 4841 ft 231 kts 234°
2026-05-05 07:38 55.91455 37.24255 5602 ft 233 kts 235°
2026-05-05 07:39 55.90535 37.21855 6320 ft 236 kts 235°
2026-05-05 07:39 55.89599 37.19416 7051 ft 240 kts 235°
2026-05-05 07:39 55.88747 37.16840 7757 ft 245 kts 244°
2026-05-05 07:39 55.88032 37.14008 8144 ft 264 kts 247°
2026-05-05 07:40 55.87300 37.10922 8641 ft 276 kts 247°
2026-05-05 07:40 55.86581 37.07719 9291 ft 281 kts 252°
2026-05-05 07:40 55.86457 37.04257 9978 ft 284 kts 281°
2026-05-05 07:40 55.86977 37.00855 10706 ft 287 kts 287°
2026-05-05 07:41 55.87581 36.97451 11393 ft 290 kts 287°
2026-05-05 07:41 55.88175 36.94006 12073 ft 294 kts 286°
2026-05-05 07:41 55.88766 36.90493 12740 ft 297 kts 286°
2026-05-05 07:41 55.89345 36.86997 13406 ft 300 kts 286°
2026-05-05 07:42 55.89934 36.83412 14059 ft 303 kts 285°
2026-05-05 07:42 55.90525 36.79790 14715 ft 306 kts 285°
2026-05-05 07:42 55.91263 36.76219 15330 ft 310 kts 297°
2026-05-05 07:42 55.92573 36.73108 15748 ft 321 kts 313°
2026-05-05 07:43 55.94195 36.70255 16097 ft 333 kts 315°
2026-05-05 07:43 55.95884 36.67358 16658 ft 337 kts 312°
2026-05-05 07:43 55.97535 36.64495 17676 ft 326 kts 311°
2026-05-05 07:43 55.99150 36.61637 18307 ft 329 kts 310°
2026-05-05 07:44 56.00791 36.58740 18751 ft 335 kts 311°
2026-05-05 07:44 56.02663 36.56280 19211 ft 346 kts 328°
2026-05-05 07:44 56.05018 36.55094 19728 ft 361 kts 350°
2026-05-05 07:44 56.07560 36.55502 20239 ft 373 kts
2026-05-05 07:45 56.10100 36.56598 20729 ft 378 kts
2026-05-05 07:45 56.12665 36.57735 21198 ft 381 kts
2026-05-05 07:45 56.15250 36.58898 21683 ft 385 kts
2026-05-05 07:45 56.17866 36.59875 22158 ft 383 kts
2026-05-05 07:46 56.20501 36.59867 22635 ft 376 kts 346°
2026-05-05 07:46 56.22977 36.58732 23043 ft 372 kts 332°
2026-05-05 07:46 56.25246 36.56544 23285 ft 371 kts 319°
2026-05-05 07:46 56.27219 36.53539 23531 ft 374 kts 311°
2026-05-05 07:47 56.29112 36.50291 23848 ft 378 kts 311°
2026-05-05 07:47 56.31022 36.47016 24242 ft 380 kts 311°
2026-05-05 07:47 56.32951 36.43729 24641 ft 382 kts 311°
2026-05-05 07:47 56.34802 36.40295 25038 ft 381 kts 305°
2026-05-05 07:48 56.36333 36.36429 25466 ft 378 kts 296°
2026-05-05 07:48 56.37462 36.32250 25907 ft 376 kts 289°
2026-05-05 07:48 56.38449 36.27861 26350 ft 378 kts 288°
2026-05-05 07:48 56.39380 36.23426 26809 ft 380 kts 287°
2026-05-05 07:49 56.40295 36.18929 27299 ft 382 kts 286°
2026-05-05 07:49 56.41211 36.14408 27802 ft 384 kts 287°
2026-05-05 07:49 56.42144 36.09868 28323 ft 387 kts 287°
2026-05-05 07:49 56.43099 36.05301 28851 ft 390 kts 287°
2026-05-05 07:50 56.44086 36.00713 29392 ft 393 kts 289°
2026-05-05 07:50 56.45319 35.96264 29921 ft 400 kts 296°
2026-05-05 07:50 56.46885 35.92144 30359 ft 406 kts 302°
2026-05-05 07:50 56.48640 35.88105 30802 ft 411 kts 303°
2026-05-05 07:51 56.50470 35.84094 31207 ft 415 kts 304°
2026-05-05 07:51 56.52339 35.80091 31625 ft 418 kts 305°
2026-05-05 07:51 56.54232 35.76061 32027 ft 422 kts 304°
2026-05-05 07:51 56.56128 35.71991 32418 ft 425 kts 304°
2026-05-05 07:52 56.58032 35.67867 32810 ft 428 kts 304°
2026-05-05 07:52 56.59952 35.63696 33201 ft 432 kts 304°
2026-05-05 07:52 56.61852 35.59547 33558 ft 435 kts 304°
2026-05-05 07:52 56.63787 35.55313 33906 ft 438 kts 304°
2026-05-05 07:53 56.65743 35.51031 34199 ft 442 kts 304°
2026-05-05 07:53 56.67705 35.46716 34546 ft 443 kts 304°
2026-05-05 07:53 56.69671 35.42386 34945 ft 444 kts 304°
2026-05-05 07:53 56.71632 35.38047 35338 ft 444 kts 304°
2026-05-05 07:54 56.73594 35.33693 35720 ft 445 kts 304°
2026-05-05 07:54 56.75559 35.29324 36089 ft 446 kts 304°
2026-05-05 07:54 56.77505 35.25002 36456 ft 448 kts 304°
2026-05-05 07:54 56.79483 35.20612 36832 ft 449 kts 305°
2026-05-05 07:55 56.81465 35.16206 37192 ft 449 kts 304°
2026-05-05 07:55 56.83441 35.11790 37571 ft 450 kts 305°
2026-05-05 07:55 56.85421 35.07352 37939 ft 451 kts 305°
2026-05-05 07:55 56.87398 35.02909 38301 ft 451 kts 304°
2026-05-05 07:56 56.89408 34.98491 38609 ft 453 kts 308°
2026-05-05 07:56 56.91670 34.94444 38876 ft 458 kts 315°
2026-05-05 07:56 56.94220 34.90913 39167 ft 461 kts 321°
2026-05-05 07:56 56.96868 34.87596 39445 ft 462 kts 322°
2026-05-05 07:57 56.99517 34.84392 39696 ft 462 kts 322°
2026-05-05 07:57 57.02223 34.81172 39828 ft 465 kts 323°
2026-05-05 07:57 57.07657 34.74739 39832 ft 465 kts 322°
2026-05-05 07:58 57.13070 34.68243 39833 ft 464 kts 322°
2026-05-05 07:58 57.18474 34.61710 39835 ft 464 kts 322°
2026-05-05 07:59 57.23835 34.55213 39827 ft 464 kts 322°
2026-05-05 07:59 57.29223 34.48652 39827 ft 464 kts 322°
2026-05-05 08:00 57.34602 34.42078 39830 ft 463 kts 322°
2026-05-05 08:00 57.39976 34.35480 39830 ft 463 kts 322°
2026-05-05 08:01 57.45305 34.28921 39824 ft 463 kts 322°
2026-05-05 08:01 57.50670 34.22297 39827 ft 463 kts 322°
2026-05-05 08:02 57.56027 34.15650 39823 ft 463 kts 322°
2026-05-05 08:02 57.61382 34.08994 39826 ft 463 kts 322°
2026-05-05 08:03 57.66700 34.02363 39826 ft 463 kts 322°
2026-05-05 08:03 57.72049 33.95665 39824 ft 463 kts 322°
2026-05-05 08:04 57.77392 33.88950 39822 ft 463 kts 322°
2026-05-05 08:04 57.82732 33.82207 39821 ft 463 kts 321°
2026-05-05 08:05 57.88027 33.75480 39819 ft 463 kts 321°
2026-05-05 08:05 57.93097 33.68109 39820 ft 460 kts 316°
2026-05-05 08:06 57.97987 33.60359 39818 ft 459 kts 315°
2026-05-05 08:06 58.02908 33.52661 39816 ft 460 kts 316°
2026-05-05 08:07 58.07834 33.45073 39817 ft 460 kts 316°
2026-05-05 08:07 58.10320 33.41256 39597 ft 460 kts 316°
2026-05-05 08:07 58.12791 33.37467 39282 ft 455 kts 316°
2026-05-05 08:08 58.15245 33.33702 38739 ft 455 kts 316°
2026-05-05 08:08 58.17711 33.29897 37992 ft 458 kts 316°
2026-05-05 08:08 58.20179 33.26068 37305 ft 459 kts 316°
2026-05-05 08:08 58.22648 33.22242 36614 ft 459 kts 316°
2026-05-05 08:09 58.25118 33.18398 35947 ft 459 kts 316°
2026-05-05 08:09 58.27556 33.14594 35248 ft 460 kts 316°
2026-05-05 08:09 58.30020 33.10751 34683 ft 457 kts 316°
2026-05-05 08:09 58.32476 33.06931 34155 ft 453 kts 316°
2026-05-05 08:10 58.34904 33.03140 33594 ft 450 kts 316°
2026-05-05 08:10 58.37313 32.99367 33036 ft 446 kts 316°
2026-05-05 08:10 58.39697 32.95635 32508 ft 441 kts 316°
2026-05-05 08:10 58.42056 32.91938 31990 ft 437 kts 316°
2026-05-05 08:11 58.44397 32.88261 31473 ft 433 kts 316°
2026-05-05 08:11 58.46677 32.84670 30985 ft 429 kts 316°
2026-05-05 08:11 58.48970 32.81057 30465 ft 426 kts 316°
2026-05-05 08:11 58.51241 32.77463 29985 ft 422 kts 316°
2026-05-05 08:12 58.53493 32.73889 29406 ft 419 kts 315°
2026-05-05 08:12 58.55722 32.70336 28898 ft 414 kts 315°
2026-05-05 08:12 58.57928 32.66830 28409 ft 410 kts 315°
2026-05-05 08:12 58.60111 32.63359 27883 ft 406 kts 315°
2026-05-05 08:13 58.62268 32.59921 27394 ft 402 kts 315°
2026-05-05 08:13 58.64380 32.56547 26895 ft 398 kts 315°
2026-05-05 08:13 58.66492 32.53160 26395 ft 394 kts 315°
2026-05-05 08:13 58.68586 32.49784 25897 ft 391 kts 315°
2026-05-05 08:14 58.70663 32.46440 25404 ft 388 kts 315°
2026-05-05 08:14 58.72727 32.43119 24909 ft 386 kts 314°
2026-05-05 08:14 58.74783 32.39804 24391 ft 384 kts 314°
2026-05-05 08:14 58.76829 32.36502 23897 ft 382 kts 315°
2026-05-05 08:15 58.78862 32.33229 23398 ft 380 kts 314°
2026-05-05 08:15 58.80883 32.29961 22836 ft 377 kts 314°
2026-05-05 08:15 58.82853 32.26768 22321 ft 373 kts 314°
2026-05-05 08:15 58.84828 32.23554 21814 ft 369 kts 314°
2026-05-05 08:16 58.86778 32.20373 21318 ft 365 kts 314°
2026-05-05 08:16 58.88708 32.17224 20824 ft 361 kts 314°
2026-05-05 08:16 58.90618 32.14105 20329 ft 357 kts 314°
2026-05-05 08:16 58.92510 32.11020 19849 ft 354 kts 314°
2026-05-05 08:17 58.94379 32.07958 19358 ft 351 kts 314°
2026-05-05 08:17 58.96231 32.04916 18872 ft 347 kts 314°
2026-05-05 08:17 58.98042 32.01942 18404 ft 344 kts 314°
2026-05-05 08:17 58.99861 31.98954 17906 ft 342 kts 314°
2026-05-05 08:18 59.01663 31.95982 17399 ft 338 kts 313°
2026-05-05 08:18 59.03440 31.93044 16929 ft 334 kts 313°
2026-05-05 08:18 59.05203 31.90129 16458 ft 331 kts 313°
2026-05-05 08:18 59.06953 31.87236 15998 ft 329 kts 313°
2026-05-05 08:19 59.08689 31.84361 15531 ft 327 kts 313°
2026-05-05 08:19 59.10415 31.81492 15075 ft 325 kts 313°
2026-05-05 08:19 59.12078 31.78630 14626 ft 321 kts 310°
2026-05-05 08:19 59.13660 31.75592 14182 ft 318 kts 308°
2026-05-05 08:20 59.15222 31.72548 13731 ft 317 kts 309°
2026-05-05 08:20 59.16787 31.69530 13262 ft 315 kts 309°
2026-05-05 08:20 59.18343 31.66549 12788 ft 312 kts 309°
2026-05-05 08:20 59.19887 31.63596 12339 ft 309 kts 309°
2026-05-05 08:21 59.21414 31.60677 11900 ft 306 kts 309°
2026-05-05 08:21 59.22929 31.57786 11463 ft 303 kts 309°
2026-05-05 08:21 59.24412 31.54955 11029 ft 301 kts 310°
2026-05-05 08:21 59.25903 31.52115 10583 ft 298 kts 310°
2026-05-05 08:22 59.27380 31.49296 10156 ft 295 kts 310°
2026-05-05 08:22 59.28821 31.46541 9958 ft 283 kts 309°
2026-05-05 08:22 59.30191 31.43921 9826 ft 268 kts 309°
2026-05-05 08:22 59.31492 31.41426 9703 ft 256 kts 309°
2026-05-05 08:23 59.32760 31.38980 9504 ft 256 kts 309°
2026-05-05 08:23 59.34021 31.36541 9265 ft 254 kts 309°
2026-05-05 08:23 59.35253 31.34161 9095 ft 253 kts 309°
2026-05-05 08:23 59.36506 31.31701 8903 ft 256 kts 308°
2026-05-05 08:24 59.37757 31.29220 8726 ft 256 kts 308°
2026-05-05 08:24 59.39005 31.26769 8429 ft 253 kts 308°
2026-05-05 08:24 59.40252 31.24333 7950 ft 253 kts 308°
2026-05-05 08:24 59.41502 31.21898 7577 ft 253 kts 309°
2026-05-05 08:25 59.42754 31.19459 7258 ft 254 kts 309°
2026-05-05 08:25 59.44006 31.17023 6931 ft 253 kts 309°
2026-05-05 08:25 59.45239 31.14623 6618 ft 253 kts 309°
2026-05-05 08:25 59.46487 31.12191 6311 ft 252 kts 309°
2026-05-05 08:26 59.47733 31.09765 5992 ft 252 kts 309°
2026-05-05 08:26 59.48978 31.07337 5657 ft 252 kts 309°
2026-05-05 08:26 59.50219 31.04910 5343 ft 252 kts 309°
2026-05-05 08:26 59.51462 31.02483 5021 ft 251 kts 309°
2026-05-05 08:27 59.52675 31.00019 4903 ft 250 kts 306°
2026-05-05 08:27 59.53801 30.97409 4833 ft 250 kts 304°
2026-05-05 08:27 59.54898 30.94818 4736 ft 249 kts 304°
2026-05-05 08:27 59.56015 30.92206 4645 ft 249 kts 304°
2026-05-05 08:28 59.57138 30.89603 4548 ft 249 kts 304°
2026-05-05 08:28 59.58262 30.87010 4410 ft 249 kts 304°
2026-05-05 08:28 59.59393 30.84404 4241 ft 249 kts 304°
2026-05-05 08:28 59.60521 30.81804 4079 ft 249 kts 304°
2026-05-05 08:29 59.61647 30.79203 3963 ft 249 kts 304°
2026-05-05 08:29 59.62772 30.76603 3857 ft 249 kts 305°
2026-05-05 08:29 59.63886 30.74040 3715 ft 249 kts 304°
2026-05-05 08:30 59.66146 30.68879 3505 ft 250 kts 308°
2026-05-05 08:30 59.67548 30.66771 3395 ft 257 kts 324°
2026-05-05 08:30 59.69109 30.65183 3270 ft 247 kts 327°
2026-05-05 08:30 59.70622 30.63734 3152 ft 236 kts 327°
2026-05-05 08:31 59.72062 30.62339 3016 ft 225 kts 327°
2026-05-05 08:31 59.73437 30.61000 2941 ft 215 kts 326°
2026-05-05 08:31 59.74739 30.59702 2881 ft 202 kts 324°
2026-05-05 08:31 59.75750 30.58068 2781 ft 181 kts 301°
2026-05-05 08:32 59.76272 30.55937 2622 ft 168 kts 282°
2026-05-05 08:32 59.76603 30.53735 2516 ft 169 kts 281°
2026-05-05 08:32 59.76926 30.51525 2413 ft 160 kts 282°
2026-05-05 08:32 59.77247 30.49483 2103 ft 151 kts 281°
2026-05-05 08:33 59.77526 30.47570 1879 ft 138 kts 281°
2026-05-05 08:33 59.77792 30.45790 1707 ft 130 kts 280°
2026-05-05 08:33 59.78047 30.44112 1533 ft 126 kts 279°
2026-05-05 08:33 59.78295 30.42458 1347 ft 123 kts 281°
2026-05-05 08:34 59.78533 30.40861 1189 ft 123 kts 280°
2026-05-05 08:34 59.78773 30.39254 1034 ft 119 kts 279°
2026-05-05 08:34 59.79009 30.37678 889 ft 124 kts 279°
2026-05-05 08:34 59.79255 30.35986 660 ft 128 kts 282°
2026-05-05 08:35 59.79504 30.34345 472 ft 124 kts 283°
2026-05-05 08:35 59.79756 30.32718 355 ft 123 kts 284°
2026-05-05 08:35 59.80006 30.31109 199 ft 122 kts 283°
2026-05-05 08:35 59.80238 30.29489 87 ft 119 kts 286°
2026-05-05 08:36 59.80439 30.28132 84 ft 87 kts 287°
2026-05-05 08:36 59.80556 30.27347 75 ft 50 kts 285°
2026-05-05 08:36 59.80636 30.26804 71 ft 19 kts 287°
2026-05-05 08:36 59.80607 30.26652 83 ft 11 kts 217°
2026-05-05 08:37 59.80522 30.26593 75 ft 14 kts 195°
2026-05-05 08:37 59.80459 30.26593 67 ft 7 kts 148°
2026-05-05 08:37 59.80427 30.26682 71 ft 9 kts 110°
2026-05-05 08:37 59.80390 30.26786 82 ft 9 kts 155°
2026-05-05 08:38 59.80329 30.26770 83 ft 10 kts 194°
2026-05-05 08:38 59.80254 30.26734 84 ft 12 kts 184°
2026-05-05 08:38 59.80187 30.26811 81 ft 12 kts 120°
2026-05-05 08:38 59.80179 30.26888 80 ft 0 kts 96°